• En Colombia
  • Lista de países
  • Para 7 días
  • Temperatura del agua
  • El tiempo en el mapa
  • Informadores
  • user-avatar
    Iniciar sesión

    Tiempo cada hora Shkoder

    Hoy, 27 Febrero, Jueves

    Tiempo Temperatura Precipitaciones Viento Presión Humedad
    00:00 +8°C° 1.1 mm 6 mps 729 mmHg 83%
    01:00 +8°C° 1.1 mm 6 mps 728 mmHg 81%
    02:00 +7°C° 1.2 mm 6 mps 728 mmHg 81%
    03:00 +7°C° 1.2 mm 6 mps 728 mmHg 81%
    04:00 +6°C° 1.2 mm 5 mps 727 mmHg 81%
    05:00 +5°C° 1.7 mm 5 mps 728 mmHg 85%
    06:00 +5°C° 1.7 mm 5 mps 728 mmHg 90%
    07:00 +3°C° 1.7 mm 5 mps 729 mmHg 94%
    08:00 +4°C° 2.6 mm 4 mps 730 mmHg 92%
    09:00 +5°C° 2.6 mm 4 mps 731 mmHg 90%
    10:00 +5°C° 2.6 mm 3 mps 731 mmHg 88%
    11:00 +4°C° 1.7 mm 3 mps 732 mmHg 88%
    12:00 +4°C° 1.7 mm 3 mps 733 mmHg 87%
    13:00 +3°C° 1.7 mm 3 mps 733 mmHg 87%
    14:00 +4°C° 1.1 mm 2 mps 734 mmHg 87%
    15:00 +5°C° 1.1 mm 2 mps 735 mmHg 86%
    16:00 +5°C° 1.1 mm 2 mps 735 mmHg 86%
    17:00 +4°C° 0 mm 2 mps 736 mmHg 85%
    18:00 +4°C° 0 mm 1 mps 737 mmHg 85%
    19:00 +3°C° 0 mm 1 mps 737 mmHg 85%
    20:00 +3°C° 0 mm 1 mps 737 mmHg 84%
    21:00 +3°C° 0 mm 1 mps 738 mmHg 83%
    22:00 +3°C° 0 mm 1 mps 738 mmHg 83%
    23:00 +2°C° 0 mm 2 mps 738 mmHg 83%

    Mañana, 28 Febrero, Viernes

    Tiempo Temperatura Precipitaciones Viento Presión Humedad
    00:00 +2°C° 0 mm 2 mps 738 mmHg 83%
    01:00 +3°C° 0 mm 2 mps 738 mmHg 82%
    02:00 +3°C° 0 mm 2 mps 737 mmHg 84%
    03:00 +3°C° 0 mm 2 mps 736 mmHg 85%
    04:00 +4°C° 0 mm 2 mps 736 mmHg 86%
    05:00 +4°C° 0.8 mm 2 mps 736 mmHg 89%
    06:00 +4°C° 0.8 mm 2 mps 736 mmHg 93%
    07:00 +3°C° 0.8 mm 3 mps 735 mmHg 97%
    08:00 +3°C° 2.3 mm 3 mps 735 mmHg 97%
    09:00 +4°C° 2.3 mm 2 mps 735 mmHg 97%
    10:00 +5°C° 2.3 mm 2 mps 735 mmHg 97%
    11:00 +5°C° 2.6 mm 2 mps 735 mmHg 97%
    12:00 +4°C° 2.6 mm 3 mps 735 mmHg 97%
    13:00 +5°C° 2.6 mm 3 mps 736 mmHg 96%
    14:00 +5°C° 0.6 mm 3 mps 736 mmHg 95%
    15:00 +5°C° 0.6 mm 3 mps 737 mmHg 94%
    16:00 +6°C° 0.6 mm 2 mps 737 mmHg 92%
    17:00 +4°C° 0.1 mm 3 mps 738 mmHg 90%
    18:00 +3°C° 0.1 mm 3 mps 739 mmHg 87%
    19:00 +3°C° 0.1 mm 3 mps 740 mmHg 84%
    20:00 +2°C° 0 mm 3 mps 741 mmHg 83%
    21:00 +2°C° 0 mm 3 mps 741 mmHg 82%
    22:00 +1°C° 0 mm 3 mps 742 mmHg 80%
    23:00 +1°C° 0 mm 3 mps 742 mmHg 79%

    Pasado mañana, 29 Febrero, Sábado

    Tiempo Temperatura Precipitaciones Viento Presión Humedad
    00:00 0°C° 0 mm 3 mps 742 mmHg 78%
    01:00 0°C° 0 mm 3 mps 742 mmHg 76%
    02:00 0°C° 0 mm 3 mps 743 mmHg 75%
    03:00 0°C° 0 mm 3 mps 743 mmHg 74%
    04:00 -1°C° 0 mm 3 mps 743 mmHg 73%
    05:00 0°C° 0 mm 3 mps 743 mmHg 71%
    06:00 +1°C° 0 mm 2 mps 743 mmHg 70%
    07:00 +1°C° 0 mm 2 mps 743 mmHg 69%
    08:00 +3°C° 0 mm 2 mps 742 mmHg 69%
    09:00 +4°C° 0 mm 2 mps 742 mmHg 69%
    10:00 +7°C° 0 mm 1 mps 742 mmHg 69%
    11:00 +8°C° 0 mm 1 mps 742 mmHg 68%
    12:00 +9°C° 0 mm 1 mps 741 mmHg 67%
    13:00 +9°C° 0 mm 1 mps 741 mmHg 66%
    14:00 +9°C° 0 mm 1 mps 741 mmHg 67%
    15:00 +9°C° 0 mm 1 mps 740 mmHg 68%
    16:00 +9°C° 0 mm 1 mps 740 mmHg 69%
    17:00 +8°C° 0 mm 1 mps 740 mmHg 67%
    18:00 +7°C° 0 mm 1 mps 740 mmHg 64%
    19:00 +6°C° 0 mm 1 mps 740 mmHg 62%
    20:00 +6°C° 0 mm 1 mps 740 mmHg 64%
    21:00 +6°C° 0 mm 1 mps 740 mmHg 66%
    22:00 +6°C° 0 mm 1 mps 740 mmHg 68%
    23:00 +7°C° 0 mm 1 mps 740 mmHg 71%

    1 Marzo, Domingo

    Tiempo Temperatura Precipitaciones Viento Presión Humedad
    00:00 +7°C° 0 mm 1 mps 740 mmHg 73%
    01:00 +7°C° 0 mm 1 mps 740 mmHg 76%
    02:00 +7°C° 0 mm 1 mps 740 mmHg 79%
    03:00 +7°C° 0 mm 1 mps 739 mmHg 82%
    04:00 +8°C° 0 mm 1 mps 739 mmHg 85%
    05:00 +8°C° 0 mm 1 mps 739 mmHg 84%
    06:00 +8°C° 0 mm 1 mps 739 mmHg 84%
    07:00 +8°C° 0 mm 1 mps 739 mmHg 83%
    08:00 +9°C° 0 mm 1 mps 739 mmHg 81%
    09:00 +10°C° 0 mm 1 mps 739 mmHg 79%
    10:00 +11°C° 0 mm 1 mps 738 mmHg 77%
    11:00 +11°C° 0 mm 1 mps 738 mmHg 76%
    12:00 +12°C° 0 mm 1 mps 738 mmHg 75%
    13:00 +12°C° 0 mm 1 mps 737 mmHg 74%
    14:00 +12°C° 0 mm 1 mps 737 mmHg 77%
    15:00 +12°C° 0 mm 1 mps 736 mmHg 79%
    16:00 +11°C° 0 mm 1 mps 736 mmHg 81%
    17:00 +10°C° 0.2 mm 2 mps 736 mmHg 83%
    18:00 +10°C° 0.2 mm 2 mps 736 mmHg 85%
    19:00 +10°C° 0.2 mm 2 mps 736 mmHg 87%
    20:00 +10°C° 0.4 mm 2 mps 736 mmHg 88%
    21:00 +10°C° 0.4 mm 2 mps 736 mmHg 88%
    22:00 +10°C° 0.4 mm 3 mps 736 mmHg 89%
    23:00 +10°C° 2.1 mm 3 mps 735 mmHg 91%

    2 Marzo, Lunes

    Tiempo Temperatura Precipitaciones Viento Presión Humedad
    00:00 +10°C° 2.1 mm 4 mps 735 mmHg 92%
    01:00 +10°C° 2.1 mm 4 mps 735 mmHg 94%
    02:00 +9°C° 4.2 mm 5 mps 734 mmHg 95%
    03:00 +9°C° 4.2 mm 5 mps 733 mmHg 96%
    04:00 +9°C° 4.2 mm 6 mps 732 mmHg 96%
    05:00 +10°C° 2.5 mm 6 mps 732 mmHg 96%
    06:00 +10°C° 2.5 mm 6 mps 732 mmHg 95%
    07:00 +10°C° 2.5 mm 6 mps 732 mmHg 94%
    08:00 +10°C° 1.9 mm 7 mps 732 mmHg 91%
    09:00 +11°C° 1.9 mm 8 mps 732 mmHg 88%
    10:00 +11°C° 1.9 mm 9 mps 733 mmHg 84%
    11:00 +11°C° 0.9 mm 8 mps 733 mmHg 81%
    12:00 +12°C° 0.9 mm 7 mps 733 mmHg 79%
    13:00 +12°C° 0.9 mm 7 mps 733 mmHg 76%
    14:00 +13°C° 0.8 mm 6 mps 733 mmHg 78%
    15:00 +12°C° 0.8 mm 5 mps 733 mmHg 80%
    16:00 +12°C° 0.8 mm 5 mps 733 mmHg 82%
    17:00 +12°C° 1.4 mm 4 mps 733 mmHg 83%
    18:00 +12°C° 1.4 mm 4 mps 733 mmHg 85%
    19:00 +11°C° 1.4 mm 4 mps 733 mmHg 86%
    20:00 +11°C° 1 mm 4 mps 733 mmHg 87%
    21:00 +11°C° 1 mm 3 mps 734 mmHg 87%
    22:00 +11°C° 1 mm 3 mps 734 mmHg 87%
    23:00 +11°C° 1 mm 3 mps 733 mmHg 88%

    3 Marzo, Martes

    Tiempo Temperatura Precipitaciones Viento Presión Humedad
    00:00 +12°C° 1 mm 2 mps 733 mmHg 89%
    01:00 +12°C° 1 mm 2 mps 733 mmHg 90%
    02:00 +12°C° 0.7 mm 2 mps 732 mmHg 89%
    03:00 +10°C° 0.7 mm 2 mps 732 mmHg 88%
    04:00 +10°C° 0.7 mm 2 mps 731 mmHg 87%
    05:00 +10°C° 0.7 mm 2 mps 731 mmHg 88%
    06:00 +10°C° 0.7 mm 2 mps 731 mmHg 89%
    07:00 +10°C° 0.7 mm 2 mps 730 mmHg 90%
    08:00 +10°C° 1.8 mm 2 mps 730 mmHg 90%
    09:00 +10°C° 1.8 mm 2 mps 730 mmHg 90%
    10:00 +10°C° 1.8 mm 3 mps 730 mmHg 90%
    11:00 +10°C° 1.5 mm 3 mps 729 mmHg 90%
    12:00 +10°C° 1.5 mm 3 mps 729 mmHg 90%
    13:00 +10°C° 1.5 mm 3 mps 728 mmHg 90%
    14:00 +11°C° 0.2 mm 3 mps 727 mmHg 88%
    15:00 +11°C° 0.2 mm 3 mps 727 mmHg 85%
    16:00 +12°C° 0.2 mm 4 mps 726 mmHg 83%
    17:00 +11°C° 1.4 mm 3 mps 726 mmHg 86%
    18:00 +10°C° 1.4 mm 3 mps 725 mmHg 89%
    19:00 +10°C° 1.4 mm 3 mps 725 mmHg 92%
    20:00 +10°C° 1 mm 2 mps 725 mmHg 91%
    21:00 +10°C° 1 mm 2 mps 725 mmHg 91%
    22:00 +10°C° 1 mm 2 mps 726 mmHg 90%
    23:00 +10°C° 0.2 mm 2 mps 726 mmHg 89%
    Mostrar más